sat.trackr.live / text

‹ back to catalog

STARLINK-36557

NORAD 67500 · 2026-012H

PAYLOAD ACTIVE UNKNOWN

§ Identity

Operator
Country
US
Launch date
2026-01-18
Launch site
AFETR
Launch vehicle
Mass (kg)
RCS (m²)

Purposes: comms

External: N2YO · Heavens-Above · Gunter

§ Orbital elements

Epoch: 2026-09-19T10:39:02.524608Z

Period
94.27 min
Inclination
43.0017°
Eccentricity
0.0002536
Mean motion
15.27596188 rev/d
Perigee alt
481.3 km
Apogee alt
484.7 km
Semi-major
6,861.1 km
B*
3.9092e-4
RAAN
300.2167°
Arg perigee
271.1135°
Mean anomaly
88.9426°
Rev number
3,739

§ Raw data

STARLINK-365571 67500U 26012H   26262.44377922  .00010516  00000+0  39092-3 0  99932 67500  43.0017 300.2167 0002536 271.1135  88.9426 15.27596188 37391

JSON: /api/v1/satellites/67500 · /tle

For live sub-satellite position, see the globe view (requires WebGL).

§ Visibility from observer

Set your observer location to see the next 7 days of passes ≥ 10°. The values pass through the URL so the page stays shareable.

No JS? Fill the form by hand. The geolocation button needs JavaScript.